Showing default

OPS 9315 (IDSCS 5), 2219

Orbit data source: Space-Track

OPS 9315 (IDSCS 5), 2219 is a payload satellite owned by USAF SSD (US) in GEO that was launched on Thu, 16 Jun 1966 UTC via a TITAN IIIC launch vehicle from the Air Force Eastern Test Range (AFETR). Payload-class satellites include a variety of spacecraft equipped with specific instruments for various scientific and technological missions. These include communications satellites like Starlink; space stations such as the ISS; scientific satellites like the Hubble; Earth observation satellites from companies like Planet Labs, Umbra, and HawkEye 360; GPS; miniature CubeSats for education and research; and military/defense satellites.

Not visible in the next 10 days
Identifier
2219, 1966-053F
Orbit
GEO
Last TLE update
1 day ago
Origin
Manufacturer
Philco-Ford WDL
Mission
Non-operational Defense Communications
Bus & Motor
IDCSP, Unknown motor
Mass
45 kg wet, 45 kg dry
Launch date (UTC)
1966-06-16 (59 years ago)
Launch vehicle
TITAN IIIC
Launch site
Air Force Eastern Test Range (AFETR)
Object type
Payload
Rocket body
Debris
Shape & HBR
Ico Poly, 0.9 m
Radar Cross Section
0.926 m², Large (>1 m²)

Expand to show TLE details & history

TLE from 1 day ago
0 OPS 9315 (IDSCS 5)
1 02219U 66053F   25191.04647727 -.00000107  00000-0  00000-0 0  9998
2 02219   7.9076  48.4629 0052308 180.2759 179.7142  1.07399068 52852
Epoch: 2025-07-10T01:06Z
TLE epoch observation values (Epoch: 2025-07-10T01:06:55.636Z)
Latitude
0.00001°
Longitude
103.50863°
Altitude
34,109.593 km
Speed
3.13 km/s
True Right ascension
03h 13m 50s
True Declination
0° 00' 00"
Sunlit
Object was in daylight at epoch
Visualization orbit readout
Latitude
-1.56434°
Longitude
-65.18847°
Altitude
33,693.426 km
Speed
3.162 km/s
Apparent Right ascension
15h 34m 55s
Apparent Declination
-6° 57' 09"
Sunlit
Object is in daylight
Visualization observer readout
Local Sidereal Time
23:38:10
Azimuth
285.311° WNW
Elevation
-27.881°
Doppler factor
1
Orbital elements
Apogee altitude
34,111.667 km
Perigee altitude
33,690.283 km
Semi-major axis
40,279.112 km
Eccentricity
0.00523
Inclination
7.9076°
RAAN
48.4629°
Arg. of periapsis
180.2759°
True anomaly
Unknown
Mean anomaly
179.7142°
Eccentric anomaly
Unknown
Mean motion
0.26849 °/min
Orbital period
1,340.85 mins
BSTAR
0
Loading historical data...
2219 neighbors
Loading maneuver chart data...
Loading SW <> Apogee altitude chart data...
Loading historical data...
Loading historical data...
Loading historical data...
Loading historical data...
Loading historical data...
Loading historical data...
Loading historical data...

OPS 9315 (IDSCS 5) Visibility

Observer location: undefined°, undefined°

OPS 9315 (IDSCS 5) is likely not visible in the next few days
Span
Click to sort rows by Start time (UTC) header in descending order
Start Az.
Max El. time (UTC)
Max El. Az.
Max El.
End time (UTC)
End Az.
|